�������l�o���
Date,Time,MP-1(��Sv/h),MP-2(��Sv/h),MP-3(��Sv/h),MP-4(��Sv/h),MP-5(��Sv/h),MP-6(��Sv/h),MP-7(��Sv/h),MP-8(��Sv/h),����,����(m/s),���J
2017/11/27,00:00,0.908,1.473,0.935,1.758,1.199,0.496,0.891,0.846,�k,5.2,��
2017/11/27,00:10,0.911,1.473,0.937,1.758,1.203,0.497,0.891,0.846,�k,6.3,��
2017/11/27,00:20,0.908,1.470,0.935,1.755,1.199,0.495,0.890,0.846,�k,7.3,��
2017/11/27,00:30,0.908,1.471,0.936,1.756,1.200,0.496,0.892,0.849,�k,7.6,��
2017/11/27,00:40,0.909,1.470,0.937,1.755,1.200,0.495,0.890,0.847,�k,8.0,��
2017/11/27,00:50,0.908,1.470,0.935,1.757,1.201,0.497,0.891,0.847,�k�k��,6.5,��
2017/11/27,01:00,0.908,1.472,0.936,1.758,1.201,0.495,0.890,0.846,�k�k��,7.3,��
2017/11/27,01:10,0.908,1.472,0.935,1.759,1.200,0.497,0.890,0.847,�k��,7.8,��
2017/11/27,01:20,0.909,1.471,0.935,1.758,1.201,0.496,0.892,0.845,�k��,6.6,��
2017/11/27,01:30,0.907,1.471,0.937,1.757,1.200,0.495,0.891,0.847,�k��,7.8,��
2017/11/27,01:40,0.907,1.470,0.938,1.757,1.201,0.497,0.890,0.848,�k��,6.4,��
2017/11/27,01:50,0.907,1.470,0.935,1.756,1.199,0.495,0.892,0.846,�k��,7.9,��
2017/11/27,02:00,0.909,1.469,0.933,1.758,1.200,0.496,0.891,0.846,�k��,7.0,��
2017/11/27,02:10,0.907,1.473,0.935,1.756,1.199,0.496,0.890,0.848,�k��,6.1,��
2017/11/27,02:20,0.907,1.470,0.934,1.760,1.200,0.497,0.892,0.847,�k�k��,5.9,��
2017/11/27,02:30,0.907,1.471,0.933,1.758,1.200,0.497,0.892,0.846,�k�k��,7.5,��
2017/11/27,02:40,0.905,1.470,0.934,1.757,1.200,0.497,0.892,0.847,�k��,9.1,��
2017/11/27,02:50,0.907,1.467,0.934,1.758,1.201,0.497,0.891,0.846,�k��,11.0,��
2017/11/27,03:00,0.907,1.470,0.936,1.757,1.198,0.496,0.893,0.847,�k��,12.8,��
2017/11/27,03:10,0.907,1.472,0.933,1.758,1.201,0.495,0.891,0.847,�k�k��,13.0,��
2017/11/27,03:20,0.908,1.469,0.937,1.758,1.199,0.496,0.892,0.848,�k��,11.1,��
2017/11/27,03:30,0.906,1.471,0.935,1.757,1.200,0.496,0.893,0.846,�k��,9.6,��
2017/11/27,03:40,0.907,1.468,0.934,1.759,1.200,0.496,0.892,0.849,�k�k��,9.3,��
2017/11/27,03:50,0.908,1.471,0.936,1.755,1.198,0.496,0.891,0.846,�k�k��,12.7,��
2017/11/27,04:00,0.905,1.471,0.933,1.759,1.200,0.495,0.890,0.846,�k�k��,13.8,��
2017/11/27,04:10,0.907,1.472,0.935,1.757,1.200,0.496,0.892,0.846,�k�k��,14.6,��
2017/11/27,04:20,0.907,1.471,0.933,1.756,1.199,0.495,0.891,0.847,�k�k��,15.5,��
2017/11/27,04:30,0.906,1.472,0.934,1.758,1.200,0.494,0.892,0.847,�k�k��,11.7,��
2017/11/27,04:40,0.907,1.471,0.934,1.756,1.201,0.494,0.890,0.849,�k�k��,11.3,��
2017/11/27,04:50,0.907,1.470,0.933,1.758,1.201,0.492,0.891,0.848,�k�k��,9.7,��
2017/11/27,05:00,0.905,1.468,0.933,1.756,1.201,0.492,0.892,0.847,�k�k��,7.8,��
2017/11/27,05:10,0.907,1.471,0.934,1.757,1.200,0.492,0.891,0.848,�k�k��,7.3,��
2017/11/27,05:20,0.905,1.470,0.934,1.756,1.201,0.495,0.890,0.847,�k�k��,5.6,��
2017/11/27,05:30,0.905,1.469,0.936,1.757,1.200,0.494,0.891,0.846,�k�k��,5.8,��
2017/11/27,05:40,0.906,1.467,0.933,1.757,1.197,0.493,0.890,0.848,�k�k��,6.1,��
2017/11/27,05:50,0.906,1.468,0.935,1.760,1.196,0.495,0.891,0.846,�k�k��,5.9,��
2017/11/27,06:00,0.906,1.471,0.934,1.757,1.198,0.494,0.889,0.846,�k�k��,5.3,��
2017/11/27,06:10,0.905,1.470,0.932,1.758,1.199,0.494,0.889,0.847,�k,6.1,��
2017/11/27,06:20,0.906,1.468,0.934,1.757,1.197,0.493,0.888,0.847,�k,5.8,��
2017/11/27,06:30,0.904,1.469,0.935,1.756,1.200,0.495,0.889,0.846,�k,6.6,��
2017/11/27,06:40,0.904,1.470,0.934,1.758,1.199,0.493,0.889,0.846,�k�k��,6.5,��
2017/11/27,06:50,0.905,1.471,0.934,1.757,1.200,0.495,0.890,0.846,�k�k��,6.0,��
2017/11/27,07:00,0.905,1.469,0.935,1.757,1.198,0.493,0.890,0.847,�k�k��,5.2,��
2017/11/27,07:10,0.905,1.471,0.935,1.758,1.198,0.494,0.890,0.846,�k�k��,4.9,��
2017/11/27,07:20,0.906,1.470,0.934,1.754,1.198,0.493,0.888,0.846,�k�k��,5.1,��
2017/11/27,07:30,0.906,1.470,0.933,1.755,1.197,0.494,0.890,0.846,�k�k��,4.5,��
2017/11/27,07:40,0.906,1.471,0.934,1.758,1.199,0.493,0.891,0.845,�k��,4.6,��
2017/11/27,07:50,0.906,1.470,0.930,1.758,1.200,0.492,0.891,0.846,�k��,4.1,��
2017/11/27,08:00,0.905,1.472,0.933,1.757,1.199,0.494,0.891,0.847,�k�k��,3.4,��
2017/11/27,08:10,0.906,1.472,0.934,1.756,1.197,0.495,0.890,0.847,�k�k��,2.6,��
2017/11/27,08:20,0.905,1.471,0.934,1.758,1.199,0.493,0.890,0.846,�k��,3.0,��
2017/11/27,08:30,0.907,1.471,0.932,1.756,1.198,0.494,0.889,0.847,�k�k��,4.5,��
2017/11/27,08:40,0.905,1.472,0.934,1.756,1.198,0.493,0.890,0.847,�k�k��,5.4,��
2017/11/27,08:50,0.907,1.471,0.932,1.758,1.199,0.494,0.889,0.846,�k�k��,5.4,��
2017/11/27,09:00,0.907,1.472,0.932,1.757,1.198,0.495,0.890,0.847,�k�k��,10.8,��
2017/11/27,09:10,0.908,1.469,0.931,1.759,1.199,0.493,0.890,0.846,�k�k��,7.4,��
2017/11/27,09:20,0.904,1.470,0.932,1.758,1.197,0.493,0.889,0.848,�k,4.0,��
2017/11/27,09:30,0.893,1.469,0.933,1.758,1.202,0.496,0.887,0.847,�k�k��,3.5,��
2017/11/27,09:40,0.890,1.464,0.933,1.757,1.200,0.494,0.888,0.847,�k�k��,4.5,��
2017/11/27,09:50,0.887,1.463,0.933,1.758,1.199,0.495,0.888,0.846,�k�k��,4.6,��
2017/11/27,10:00,0.887,1.467,0.933,1.759,1.200,0.493,0.888,0.846,�k�k��,4.3,��
2017/11/27,10:10,0.894,1.465,0.934,1.758,1.201,0.489,0.889,0.847,�k,5.2,��
2017/11/27,10:20,0.904,1.463,0.936,1.762,1.196,0.491,0.891,0.847,�k�k��,4.8,��
2017/11/27,10:30,0.900,1.468,0.935,1.759,1.198,0.490,0.889,0.846,�k�k��,4.0,��
2017/11/27,10:40,0.904,1.468,0.934,1.758,1.202,0.486,0.887,0.846,�k�k��,5.7,��
2017/11/27,10:50,0.904,1.466,0.936,1.758,1.203,0.491,0.889,0.847,�k�k��,6.5,��
2017/11/27,11:00,0.907,1.466,0.937,1.763,1.203,0.495,0.888,0.846,�k,5.2,��
2017/11/27,11:10,0.904,1.467,0.935,1.761,1.202,0.495,0.887,0.846,�k�k��,6.6,��
2017/11/27,11:20,0.903,1.465,0.933,1.759,1.202,0.495,0.886,0.846,�k,5.6,��
2017/11/27,11:30,0.905,1.470,0.935,1.764,1.202,0.496,0.887,0.846,�k�k��,6.3,��
2017/11/27,11:40,0.905,1.467,0.936,1.761,1.202,0.496,0.888,0.848,�k�k��,7.9,��
2017/11/27,11:50,0.905,1.468,0.937,1.761,1.201,0.495,0.888,0.848,�k��,6.7,��
2017/11/27,12:00,0.907,1.468,0.934,1.761,1.200,0.495,0.889,0.847,�k�k��,7.6,��
2017/11/27,12:10,0.904,1.467,0.934,1.760,1.198,0.496,0.889,0.848,�k�k��,7.2,��
2017/11/27,12:20,0.904,1.470,0.936,1.761,1.200,0.493,0.891,0.847,�k��,7.2,��
2017/11/27,12:30,0.905,1.469,0.936,1.758,1.201,0.495,0.890,0.847,�k��,7.7,��
2017/11/27,12:40,0.907,1.470,0.935,1.762,1.201,0.495,0.890,0.848,�k��,5.9,��
2017/11/27,12:50,0.905,1.472,0.936,1.759,1.199,0.494,0.891,0.847,�k��,4.9,��
2017/11/27,13:00,0.907,1.470,0.936,1.759,1.202,0.495,0.891,0.849,�k��,5.1,��
2017/11/27,13:10,0.906,1.468,0.935,1.762,1.204,0.494,0.892,0.846,�k��,5.2,��
2017/11/27,13:20,0.905,1.471,0.935,1.761,1.202,0.496,0.888,0.843,�k��,4.7,��
2017/11/27,13:30,0.906,1.468,0.936,1.760,1.203,0.493,0.888,0.844,���k��,4.1,��
2017/11/27,13:40,0.906,1.470,-,1.759,1.205,0.493,0.889,0.844,���k��,4.4,��
2017/11/27,13:50,0.907,1.469,-,1.763,1.203,0.494,0.888,0.845,���k��,3.6,��
2017/11/27,14:00,0.905,1.470,0.933,1.755,1.202,0.494,0.889,0.846,�k��,3.3,��
2017/11/27,14:10,0.906,1.467,0.935,1.760,1.205,0.495,0.891,0.846,���k��,2.8,��
2017/11/27,14:20,0.906,1.472,0.936,1.762,1.204,0.495,0.890,0.849,�k��,2.6,��
2017/11/27,14:30,0.907,1.471,0.935,1.759,1.202,0.495,0.891,0.849,�k�k��,1.7,��
2017/11/27,14:40,0.906,1.475,0.935,1.758,1.204,0.495,0.890,0.846,�k�k��,2.0,��
2017/11/27,14:50,0.907,1.474,-,1.762,1.201,0.495,0.890,0.846,��,1.7,��
2017/11/27,15:00,0.906,1.472,0.934,1.759,1.203,0.494,0.889,0.847,���k��,1.7,��
2017/11/27,15:10,0.905,1.475,0.933,1.760,1.203,0.495,0.889,0.847,���k��,1.7,��
2017/11/27,15:20,0.907,1.474,0.935,1.755,1.203,0.494,0.889,0.846,���k��,1.9,��
2017/11/27,15:30,0.905,1.473,0.936,1.755,1.204,0.495,0.891,0.846,���쓌,2.0,��
2017/11/27,15:40,0.906,1.471,0.934,1.752,1.201,0.495,0.889,0.848,���쓌,1.7,��
2017/11/27,15:50,0.907,1.476,0.936,-,1.206,0.494,0.889,0.848,��,2.0,��
2017/11/27,16:00,0.907,1.476,0.934,1.753,1.202,0.494,0.889,0.846,���쓌,2.0,��
2017/11/27,16:10,0.907,1.477,0.935,1.759,1.203,0.494,0.889,0.846,���쓌,1.2,��
2017/11/27,16:20,0.904,1.476,0.932,1.754,1.203,0.495,0.889,0.846,�쓌,1.5,��
2017/11/27,16:30,0.906,1.475,0.936,1.757,1.204,0.495,0.889,0.848,��,1.4,��
2017/11/27,16:40,0.902,1.476,0.935,-,1.203,0.497,0.890,0.846,���k��,1.5,��
2017/11/27,16:50,0.905,1.477,0.936,1.755,1.203,0.493,0.889,0.848,�쓌,1.5,��
2017/11/27,17:00,0.904,1.475,0.937,1.758,1.201,0.495,0.888,0.845,�쓌,1.2,��
2017/11/27,17:10,0.904,1.473,0.936,1.761,1.201,0.493,0.887,0.848,�쓌,2.0,��
2017/11/27,17:20,0.900,1.477,0.936,1.757,1.203,0.495,0.889,0.846,��,0.9,��
2017/11/27,17:30,0.903,1.475,0.935,1.762,1.202,0.496,0.891,0.847,���쓌,1.5,��
2017/11/27,17:40,0.902,1.476,0.937,1.760,1.201,0.494,0.889,0.846,���쓌,1.5,��
2017/11/27,17:50,0.901,1.476,0.935,1.757,1.204,0.494,0.891,0.845,���쓌,1.4,��
2017/11/27,18:00,0.904,1.476,0.937,1.759,1.204,0.493,0.889,0.847,��,0.9,��
2017/11/27,18:10,0.904,1.474,0.935,1.762,1.201,0.495,0.890,0.847,�쐼,1.2,��
2017/11/27,18:20,0.903,1.478,0.934,1.759,1.201,0.494,0.891,0.847,��쐼,1.2,��
2017/11/27,18:30,0.902,1.476,0.936,1.760,1.203,0.495,0.887,0.845,��,1.1,��
2017/11/27,18:40,0.904,1.476,0.935,1.760,1.199,0.497,0.887,0.846,��쐼,0.8,��
2017/11/27,18:50,0.901,1.474,0.936,1.759,1.200,0.496,0.889,0.845,��,1.1,��
2017/11/27,19:00,0.903,1.476,0.935,1.759,1.202,0.496,0.887,0.845,�쓌,0.9,��
2017/11/27,19:10,0.904,1.476,0.933,1.762,1.202,0.496,0.889,0.846,-,CALM,��
2017/11/27,19:20,0.902,1.475,0.935,1.759,1.201,0.495,0.890,0.846,��,1.2,��
2017/11/27,19:30,0.902,1.475,0.935,1.759,1.202,0.494,0.888,0.846,��쐼,1.1,��
2017/11/27,19:40,0.902,1.475,0.936,1.758,1.202,0.495,0.887,0.848,��쐼,1.2,��
2017/11/27,19:50,0.901,1.476,0.934,1.759,1.203,0.494,0.889,0.844,��쐼,0.9,��
2017/11/27,20:00,0.903,1.477,0.934,1.762,1.204,0.494,0.890,0.847,���쐼,0.9,��
2017/11/27,20:10,0.902,1.474,0.935,1.759,1.202,0.495,0.888,0.845,�쐼,1.5,��
2017/11/27,20:20,0.899,1.475,0.934,1.758,1.200,0.495,0.890,0.845,���쐼,1.7,��
2017/11/27,20:30,0.903,1.476,0.936,1.758,1.201,0.492,0.889,0.847,�쐼,1.4,��
2017/11/27,20:40,0.901,1.475,0.934,1.758,1.201,0.493,0.890,0.844,�쐼,1.4,��
2017/11/27,20:50,0.902,1.477,0.935,1.759,1.201,0.494,0.888,0.846,���쐼,1.2,��
2017/11/27,21:00,0.902,1.477,0.935,1.757,1.203,0.494,0.888,0.845,�쐼,1.5,��
2017/11/27,21:10,0.899,1.474,0.934,1.759,1.201,0.494,0.889,0.845,���쐼,1.2,��
2017/11/27,21:20,0.900,1.473,0.935,1.756,1.202,0.496,0.888,0.847,�쐼,1.5,��
2017/11/27,21:30,0.904,1.474,0.935,1.757,1.201,0.494,0.887,0.846,���쐼,1.5,��
2017/11/27,21:40,0.903,1.477,0.936,1.759,1.202,0.494,0.890,0.846,�쐼,2.3,��
2017/11/27,21:50,0.901,1.473,0.936,1.761,1.198,0.494,0.888,0.847,��쐼,1.4,��
2017/11/27,22:00,0.902,1.475,0.934,1.755,1.200,0.495,0.890,0.847,�쐼,2.0,��
2017/11/27,22:10,0.903,1.476,0.935,1.757,1.201,0.495,0.892,0.845,��쐼,2.3,��
2017/11/27,22:20,0.903,1.475,0.934,1.757,1.201,0.495,0.889,0.846,�쐼,2.3,��
2017/11/27,22:30,0.902,1.472,0.935,1.756,1.200,0.494,0.887,0.845,�쐼,2.2,��
2017/11/27,22:40,0.902,1.475,0.934,1.758,1.200,0.495,0.888,0.846,�쐼,1.9,��
2017/11/27,22:50,0.902,1.475,0.934,1.756,1.201,0.495,0.889,0.846,�쐼,1.7,��
2017/11/27,23:00,0.901,1.475,0.935,1.759,1.200,0.496,0.888,0.847,�쐼,2.0,��
2017/11/27,23:10,0.902,1.473,0.934,1.758,1.200,0.495,0.890,0.846,�쐼,2.3,��
2017/11/27,23:20,0.903,1.477,0.935,1.756,1.200,0.494,0.888,0.846,�쐼,2.0,��
2017/11/27,23:30,0.902,1.470,0.935,1.758,1.201,0.495,0.888,0.845,�쐼,2.3,��
2017/11/27,23:40,0.902,1.473,0.933,1.756,1.201,0.495,0.887,0.845,��쐼,2.2,��
2017/11/27,23:50,0.901,1.474,0.934,1.756,1.201,0.495,0.889,0.846,�쐼,2.2,��
